EW3165 Weather Reports


Display with metric or nautical units.
time (UTC)temp
F
wind
direction
speed
MPH
gust
MPH
rain 1hr
in
rain 24hr
in
rain mn
in
humidity
%
barometer
mb
20180821061407 66 76 0.0 0.0 0.00 0.00 0.00 43 1012.5
20180821060406 66 76 0.0 0.0 0.00 0.00 0.00 42 1012.5
20180821055406 66 76 0.0 0.0 0.00 0.00 0.00 42 1012.5
20180821054406 65 77 0.0 0.0 0.00 0.00 0.00 42 1012.5
20180821053407 65 76 0.0 0.0 0.00 0.00 0.00 41 1012.5
20180821052406 66 76 0.0 0.0 0.00 0.00 0.00 40 1012.5
20180821051405 67 77 0.0 0.0 0.00 0.00 0.00 38 1012.6
20180821050404 68 76 0.0 1.0 0.00 0.00 0.00 38 1012.7
20180821045404 68 76 0.0 0.0 0.00 0.00 0.00 37 1012.7
20180821044404 69 76 0.0 0.0 0.00 0.00 0.00 36 1012.6
20180821043404 70 76 0.0 0.0 0.00 0.00 0.00 35 1012.6
20180821042402 71 76 1.0 2.0 0.00 0.00 0.00 35 1012.6
20180821041401 71 74 0.0 3.0 0.00 0.00 0.00 35 1012.4
20180821040400 71 75 0.0 1.0 0.00 0.00 0.00 35 1012.2
20180821035400 72 75 0.0 0.0 0.00 0.00 0.00 34 1012.2
20180821034400 73 75 0.0 1.0 0.00 0.00 0.00 34 1012.2
20180821033358 74 75 0.0 1.0 0.00 0.00 0.00 34 1012.1
20180821032358 75 74 0.0 1.0 0.00 0.00 0.00 33 1012.1
20180821031358 75 75 0.0 1.0 0.00 0.00 0.00 31 1012.2
20180821030358 76 252 0.0 0.0 0.00 0.00 0.00 26 1012.1
20180821025359 78 252 0.0 0.0 0.00 0.00 0.00 24 1012.0
20180821024358 79 252 0.0 0.0 0.00 0.00 0.00 25 1012.0
20180821023359 80 252 0.0 0.0 0.00 0.00 0.00 25 1011.9
20180821022359 82 252 0.0 2.0 0.00 0.00 0.00 24 1011.8
20180821021357 83 248 0.0 1.0 0.00 0.00 0.00 24 1011.7
20180821020358 83 249 1.0 3.0 0.00 0.00 0.00 22 1011.6
20180821015358 84 236 1.0 4.0 0.00 0.00 0.00 21 1011.6
20180821014357 86 229 1.0 4.0 0.00 0.00 0.00 22 1011.6
20180821013358 87 255 1.0 6.0 0.00 0.00 0.00 20 1011.6
20180821012358 87 273 2.0 5.0 0.00 0.00 0.00 20 1011.7
20180821011359 88 330 2.0 7.0 0.00 0.00 0.00 20 1011.7
20180821010356 89 267 1.0 7.0 0.00 0.00 0.00 19 1011.7
20180821005356 89 289 2.0 7.0 0.00 0.00 0.00 21 1011.8
20180821004357 89 207 2.0 5.0 0.00 0.00 0.00 20 1011.7
20180821003356 89 253 2.0 6.0 0.00 0.00 0.00 19 1011.7
20180821002356 89 204 2.0 7.0 0.00 0.00 0.00 19 1011.7
20180821001356 89 283 3.0 8.0 0.00 0.00 0.00 20 1011.7
20180821000356 90 346 2.0 6.0 0.00 0.00 0.00 19 1011.8
20180820235356 91 172 2.0 6.0 0.00 0.00 0.00 19 1011.7
20180820234356 91 267 2.0 4.0 0.00 0.00 0.00 20 1011.7
20180820233356 91 44 2.0 8.0 0.00 0.00 0.00 19 1011.6
20180820232356 91 165 2.0 5.0 0.00 0.00 0.00 20 1011.7
20180820231356 91 188 2.0 6.0 0.00 0.00 0.00 19 1011.7
20180820230356 91 167 3.0 9.0 0.00 0.00 0.00 19 1011.7
20180820225356 91 271 3.0 9.0 0.00 0.00 0.00 19 1011.5
20180820224355 90 83 3.0 6.0 0.00 0.00 0.00 20 1011.6
20180820223356 90 322 3.0 14.0 0.00 0.00 0.00 21 1011.7
20180820222355 91 322 4.0 11.0 0.00 0.00 0.00 19 1011.8
20180820221354 91 243 4.0 12.0 0.00 0.00 0.00 20 1011.9
20180820220351 92 266 2.0 8.0 0.00 0.00 0.00 19 1011.9
20180820215349 93 304 2.0 8.0 0.00 0.00 0.00 19 1011.9
20180820214348 92 229 2.0 7.0 0.00 0.00 0.00 18 1011.9
20180820213348 92 207 3.0 8.0 0.00 0.00 0.00 17 1012.0
20180820212348 92 91 2.0 6.0 0.00 0.00 0.00 17 1012.0
20180820211348 92 65 2.0 6.0 0.00 0.00 0.00 16 1012.1
20180820210347 92 240 3.0 8.0 0.00 0.00 0.00 16 1012.1
20180820205346 93 242 2.0 8.0 0.00 0.00 0.00 17 1012.2
20180820204346 92 232 3.0 9.0 0.00 0.00 0.00 18 1012.2
20180820203346 92 100 2.0 7.0 0.00 0.00 0.00 17 1012.4
20180820202345 93 1 2.0 6.0 0.00 0.00 0.00 16 1012.5
20180820201345 92 165 3.0 10.0 0.00 0.00 0.00 17 1012.4
20180820200345 92 179 3.0 8.0 0.00 0.00 0.00 16 1012.4
20180820195345 92 274 3.0 9.0 0.00 0.00 0.00 17 1012.5
20180820194346 92 165 2.0 5.0 0.00 0.00 0.00 18 1012.6
20180820193345 91 242 3.0 8.0 0.00 0.00 0.00 17 1012.6
20180820192343 91 262 3.0 8.0 0.00 0.00 0.00 17 1012.7
20180820191343 90 274 3.0 10.0 0.00 0.00 0.00 16 1012.8
20180820190344 90 139 3.0 9.0 0.00 0.00 0.00 16 1012.9
20180820185344 89 298 3.0 8.0 0.00 0.00 0.00 15 1012.8
20180820184341 90 237 3.0 11.0 0.00 0.00 0.00 15 1012.9
20180820183342 89 231 2.0 7.0 0.00 0.00 0.00 18 1013.0
20180820182342 89 280 2.0 6.0 0.00 0.00 0.00 18 1013.0
20180820181342 89 326 2.0 7.0 0.00 0.00 0.00 17 1013.0
20180820180342 89 213 1.0 5.0 0.00 0.00 0.00 18 1012.9
20180820175342 88 246 2.0 4.0 0.00 0.00 0.00 20 1013.0
20180820174341 88 139 1.0 4.0 0.00 0.00 0.00 19 1013.0
20180820173341 87 132 1.0 4.0 0.00 0.00 0.00 20 1013.0
20180820172339 86 270 1.0 3.0 0.00 0.00 0.00 20 1013.0
20180820171340 85 103 1.0 4.0 0.00 0.00 0.00 19 1012.9
20180820170340 84 132 1.0 3.0 0.00 0.00 0.00 21 1012.9
20180820165339 84 255 1.0 3.0 0.00 0.00 0.00 21 1013.0
20180820164337 83 291 1.0 3.0 0.00 0.00 0.00 26 1013.0
20180820163338 82 261 1.0 3.0 0.00 0.00 0.00 25 1012.9
20180820162337 81 205 0.0 2.0 0.00 0.00 0.00 27 1012.9
20180820161337 80 201 0.0 2.0 0.00 0.00 0.00 31 1012.9
20180820160338 79 214 0.0 2.0 0.00 0.00 0.00 34 1012.9
20180820155337 78 150 0.0 2.0 0.00 0.00 0.00 30 1012.9
20180820154335 77 132 0.0 1.0 0.00 0.00 0.00 36 1012.9
20180820153335 77 132 0.0 1.0 0.00 0.00 0.00 32 1012.8
20180820152335 76 131 1.0 5.0 0.00 0.00 0.00 28 1012.7
20180820151334 76 68 0.0 2.0 0.00 0.00 0.00 29 1012.6
20180820150333 75 88 0.0 2.0 0.00 0.00 0.00 29 1012.5
20180820145334 75 71 0.0 2.0 0.00 0.00 0.00 30 1012.5
20180820144333 74 76 1.0 4.0 0.00 0.00 0.00 28 1012.5
20180820143333 73 69 2.0 5.0 0.00 0.00 0.00 26 1012.4
20180820142334 72 115 1.0 3.0 0.00 0.00 0.00 27 1012.5
20180820141331 71 63 1.0 3.0 0.00 0.00 0.00 28 1012.4
20180820140333 70 46 1.0 4.0 0.00 0.00 0.00 28 1012.2
20180820135332 70 50 1.0 4.0 0.00 0.00 0.00 27 1012.2
20180820134331 70 63 2.0 3.0 0.00 0.00 0.00 27 1012.1
20180820133332 69 75 1.0 4.0 0.00 0.00 0.00 27 1012.0
20180820132331 69 70 1.0 3.0 0.00 0.00 0.00 27 1012.0
20180820131331 69 64 1.0 2.0 0.00 0.00 0.00 27 1012.0
20180820130331 69 77 0.0 3.0 0.00 0.00 0.00 27 1011.9
20180820125329 69 75 0.0 2.0 0.00 0.00 0.00 27 1011.8
20180820124330 70 95 1.0 3.0 0.00 0.00 0.00 27 1011.8
20180820123329 70 74 2.0 4.0 0.00 0.00 0.00 27 1011.8
20180820122329 70 70 2.0 4.0 0.00 0.00 0.00 27 1011.8
20180820121327 70 60 2.0 5.0 0.00 0.00 0.00 27 1011.8
20180820120325 70 72 2.0 6.0 0.00 0.00 0.00 27 1011.9
20180820115325 70 79 2.0 4.0 0.00 0.00 0.00 27 1011.9
20180820114325 70 75 2.0 4.0 0.00 0.00 0.00 27 1011.9
20180820113325 70 72 2.0 5.0 0.00 0.00 0.00 28 1011.9
20180820112325 70 77 2.0 5.0 0.00 0.00 0.00 28 1011.8
20180820111323 71 57 2.0 4.0 0.00 0.00 0.00 28 1011.8
20180820110321 71 34 2.0 4.0 0.00 0.00 0.00 28 1011.8
20180820105320 71 103 1.0 5.0 0.00 0.00 0.00 28 1011.8
20180820104321 71 67 2.0 5.0 0.00 0.00 0.00 28 1011.8
20180820103321 71 79 2.0 4.0 0.00 0.00 0.00 29 1011.8
20180820102320 71 84 2.0 6.0 0.00 0.00 0.00 29 1011.9
20180820101321 71 75 1.0 4.0 0.00 0.00 0.00 29 1011.9
20180820100320 71 60 1.0 3.0 0.00 0.00 0.00 29 1011.9
20180820095322 72 75 1.0 5.0 0.00 0.00 0.00 29 1011.9
20180820094321 72 75 2.0 4.0 0.00 0.00 0.00 29 1011.9
20180820093320 72 84 2.0 4.0 0.00 0.00 0.00 29 1011.9
20180820092321 72 66 2.0 5.0 0.00 0.00 0.00 29 1012.0
20180820091322 72 23 2.0 4.0 0.00 0.00 0.00 29 1012.0
20180820090321 72 59 1.0 3.0 0.00 0.00 0.00 30 1012.0
20180820085320 72 70 1.0 4.0 0.00 0.00 0.00 30 1012.1
20180820084320 72 49 1.0 3.0 0.00 0.00 0.00 30 1012.0
20180820083321 72 88 1.0 4.0 0.00 0.00 0.00 30 1012.1
20180820082321 72 72 1.0 5.0 0.00 0.00 0.00 30 1012.1
20180820081322 71 37 1.0 3.0 0.00 0.00 0.00 31 1012.2
20180820080321 71 77 0.0 2.0 0.00 0.00 0.00 32 1012.2
20180820075320 70 53 0.0 1.0 0.00 0.00 0.00 33 1012.4
20180820074320 69 66 0.0 2.0 0.00 0.00 0.00 33 1012.6
20180820073321 68 59 0.0 1.0 0.00 0.00 0.00 34 1012.6
20180820072321 67 59 0.0 2.0 0.00 0.00 0.00 34 1012.6
20180820071321 67 62 0.0 2.0 0.00 0.00 0.00 33 1012.6
20180820070320 67 65 0.0 0.0 0.00 0.00 0.00 32 1012.7
20180820065320 67 65 0.0 0.0 0.00 0.00 0.00 34 1012.7
20180820064319 66 65 0.0 0.0 0.00 0.00 0.00 34 1012.8
20180820063318 67 65 0.0 0.0 0.00 0.00 0.00 34 1012.8
20180820062318 67 65 0.0 0.0 0.00 0.00 0.00 34 1012.8